CW4740 Weather Reports


Display with metric or nautical units.
time (UTC)temp
F
wind
direction
speed
MPH
gust
MPH
rain 1hr
in
rain 24hr
in
rain mn
in
humidity
%
barometer
mb
20260510004207 83 171 4.0 10.0 0.00 0.00 0.00 80 1013.4
20260510003643 83 158 5.0 12.0 0.00 0.00 0.00 79 1013.4
20260510003141 83 167 4.0 13.0 0.00 0.00 0.00 79 1013.3
20260510002721 83 143 7.0 13.0 0.00 0.00 0.00 80 1013.2
20260510002156 83 163 5.0 11.0 0.00 0.00 0.00 80 1013.2
20260510001711 83 167 5.0 15.0 0.00 0.00 0.00 81 1013.0
20260510001205 84 187 6.0 15.0 0.00 0.00 0.00 81 1013.0
20260510000640 84 152 5.0 12.0 0.00 0.00 0.00 81 1012.9
20260510000136 84 250 4.0 13.0 0.00 0.00 0.00 81 1012.8
20260509235645 84 175 7.0 14.0 0.00 0.00 0.00 80 1012.9
20260509235143 84 121 5.0 10.0 0.00 0.00 0.00 80 1012.8
20260509234701 84 147 7.0 12.0 0.00 0.00 0.00 80 1012.9
20260509234138 84 168 5.0 11.0 0.00 0.00 0.00 80 1012.8
20260509233656 84 171 6.0 10.0 0.00 0.00 0.00 80 1012.8
20260509233232 84 161 4.0 13.0 0.00 0.00 0.00 79 1012.7
20260509233129 84 161 4.0 13.0 0.00 0.00 0.00 79 1012.7
20260509232646 84 158 8.0 13.0 0.00 0.00 0.00 79 1012.6
20260509232204 84 148 7.0 13.0 0.00 0.00 0.00 80 1012.6
20260509231641 84 153 7.0 14.0 0.00 0.00 0.00 80 1012.6
20260509231139 84 121 6.0 13.0 0.00 0.00 0.00 80 1012.5
20260509230738 84 202 6.0 13.0 0.00 0.00 0.00 80 1012.5
20260509230635 84 202 6.0 13.0 0.00 0.00 0.00 80 1012.5
20260509230133 85 190 7.0 18.0 0.00 0.00 0.00 79 1012.4
20260509225642 85 175 7.0 14.0 0.00 0.00 0.00 78 1012.3
20260509225159 85 98 9.0 16.0 0.00 0.00 0.00 78 1012.3
20260509224715 85 145 6.0 14.0 0.00 0.00 0.00 78 1012.3
20260509224211 85 162 7.0 16.0 0.00 0.00 0.00 78 1012.3
20260509223646 85 161 8.0 16.0 0.00 0.00 0.00 77 1012.4
20260509223144 85 173 8.0 17.0 0.00 0.00 0.00 76 1012.4
20260509222640 86 113 7.0 17.0 0.00 0.00 0.00 76 1012.3
20260509222138 85 138 5.0 17.0 0.00 0.00 0.00 76 1012.3
20260509221716 85 215 8.0 17.0 0.00 0.00 0.00 76 1012.2
20260509221231 85 158 8.0 17.0 0.00 0.00 0.00 77 1012.2
20260509220645 86 151 9.0 17.0 0.00 0.00 0.00 77 1012.2
20260509220200 86 159 7.0 15.0 0.00 0.00 0.00 77 1012.3
20260509215644 86 153 8.0 16.0 0.00 0.00 0.00 77 1012.3
20260509215141 86 163 7.0 15.0 0.00 0.00 0.00 77 1012.2
20260509214638 86 131 6.0 20.0 0.00 0.00 0.00 77 1012.2
20260509214135 86 157 12.0 20.0 0.00 0.00 0.00 76 1012.1
20260509213632 86 135 9.0 16.0 0.00 0.00 0.00 75 1012.2
20260509213150 87 152 9.0 21.0 0.00 0.00 0.00 72 1012.1
20260509212628 87 163 10.0 21.0 0.00 0.00 0.00 72 1012.3
20260509212245 88 161 9.0 18.0 0.00 0.00 0.00 71 1012.2
20260509211639 88 183 8.0 15.0 0.00 0.00 0.00 70 1012.3
20260509211137 88 154 7.0 15.0 0.00 0.00 0.00 70 1012.4
20260509210714 87 115 5.0 15.0 0.00 0.00 0.00 72 1012.3
20260509210148 87 123 10.0 16.0 0.00 0.00 0.00 71 1012.3
20260509205636 87 175 8.0 20.0 0.00 0.00 0.00 71 1012.2
20260509205154 87 181 9.0 20.0 0.00 0.00 0.00 73 1012.2
20260509204631 87 188 10.0 16.0 0.00 0.00 0.00 70 1012.3
20260509204246 87 163 9.0 17.0 0.00 0.00 0.00 72 1012.3
20260509204143 87 163 9.0 17.0 0.00 0.00 0.00 72 1012.3
20260509203645 87 150 8.0 19.0 0.00 0.00 0.00 74 1012.4
20260509203142 88 113 10.0 19.0 0.00 0.00 0.00 71 1012.5
20260509202735 88 121 7.0 19.0 0.00 0.00 0.00 71 1012.6
20260509202229 88 150 10.0 19.0 0.00 0.00 0.00 72 1012.6
20260509201645 88 167 7.0 18.0 0.00 0.00 0.00 71 1012.7
20260509201143 88 127 6.0 15.0 0.00 0.00 0.00 70 1012.6
20260509200643 88 170 10.0 15.0 0.00 0.00 0.00 69 1012.8
20260509200143 89 154 8.0 17.0 0.00 0.00 0.00 68 1012.7
20260509195631 88 167 9.0 17.0 0.00 0.00 0.00 66 1012.9
20260509195149 88 119 6.0 18.0 0.00 0.00 0.00 71 1013.0
20260509194646 88 153 10.0 19.0 0.00 0.00 0.00 70 1013.1
20260509194144 88 134 9.0 17.0 0.00 0.00 0.00 70 1013.0
20260509193702 88 145 7.0 14.0 0.00 0.00 0.00 70 1013.0
20260509193136 88 94 9.0 14.0 0.00 0.00 0.00 71 1012.9
20260509192633 89 134 8.0 15.0 0.00 0.00 0.00 70 1013.0
20260509192207 89 111 6.0 15.0 0.00 0.00 0.00 70 1013.0
20260509191703 88 123 8.0 15.0 0.00 0.00 0.00 70 1013.0
20260509191219 89 166 6.0 14.0 0.00 0.00 0.00 73 1013.1
20260509190656 89 134 8.0 13.0 0.00 0.00 0.00 72 1013.1
20260509190229 89 105 8.0 12.0 0.00 0.00 0.00 72 1013.2
20260509185635 88 121 8.0 13.0 0.00 0.00 0.00 72 1013.3
20260509185135 88 198 7.0 13.0 0.00 0.00 0.00 73 1013.2
20260509184633 88 102 7.0 16.0 0.00 0.00 0.00 73 1013.3
20260509184211 88 113 7.0 15.0 0.00 0.00 0.00 73 1013.3
20260509184129 88 113 7.0 15.0 0.00 0.00 0.00 73 1013.3
20260509183647 88 166 8.0 14.0 0.00 0.00 0.00 73 1013.3
20260509183240 88 130 6.0 13.0 0.00 0.00 0.00 73 1013.4
20260509183137 88 130 6.0 13.0 0.00 0.00 0.00 73 1013.4
20260509182655 88 138 7.0 13.0 0.00 0.00 0.00 71 1013.7
20260509182229 88 152 7.0 13.0 0.00 0.00 0.00 71 1013.8
20260509182147 88 152 7.0 13.0 0.00 0.00 0.00 71 1013.8
20260509181704 88 153 8.0 13.0 0.00 0.00 0.00 71 1013.9
20260509181139 88 186 8.0 14.0 0.00 0.00 0.00 73 1014.0
20260509180637 88 147 8.0 14.0 0.00 0.00 0.00 72 1013.8
20260509180214 88 103 8.0 15.0 0.00 0.00 0.00 73 1013.9
20260509175642 89 144 9.0 15.0 0.00 0.00 0.00 71 1013.9
20260509175141 89 140 7.0 14.0 0.00 0.00 0.00 70 1013.9
20260509174658 88 137 7.0 15.0 0.00 0.00 0.00 73 1013.9
20260509174215 88 176 7.0 15.0 0.00 0.00 0.00 71 1014.2
20260509173751 88 109 8.0 14.0 0.00 0.00 0.00 72 1014.2
20260509173647 88 109 8.0 14.0 0.00 0.00 0.00 72 1014.2
20260509173225 88 139 5.0 18.0 0.00 0.00 0.00 75 1014.2
20260509172638 88 118 7.0 18.0 0.00 0.00 0.00 73 1014.2
20260509172134 88 160 6.0 12.0 0.00 0.00 0.00 74 1014.3
20260509171633 88 102 5.0 14.0 0.00 0.00 0.00 73 1014.3
20260509171210 88 92 9.0 14.0 0.00 0.00 0.00 76 1014.3
20260509170705 88 122 8.0 14.0 0.00 0.00 0.00 75 1014.4
20260509170200 87 142 6.0 17.0 0.00 0.00 0.00 76 1014.4
20260509165644 87 94 8.0 17.0 0.00 0.00 0.00 77 1014.4
20260509165201 87 134 9.0 13.0 0.00 0.00 0.00 76 1014.4
20260509164658 87 109 8.0 15.0 0.00 0.00 0.00 76 1014.6
20260509164135 87 96 9.0 17.0 0.00 0.00 0.00 76 1014.6
20260509163631 87 102 9.0 14.0 0.00 0.00 0.00 75 1014.5
20260509163249 88 129 8.0 14.0 0.00 0.00 0.00 74 1014.6
20260509162643 88 117 5.0 13.0 0.00 0.00 0.00 74 1014.7
20260509162201 89 137 5.0 11.0 0.00 0.00 0.00 72 1014.7
20260509161656 89 128 6.0 12.0 0.00 0.00 0.00 72 1014.9
20260509161132 88 175 6.0 12.0 0.00 0.00 0.00 72 1014.8
20260509160708 89 117 5.0 10.0 0.00 0.00 0.00 73 1014.7
20260509160145 89 132 5.0 10.0 0.00 0.00 0.00 72 1014.8
20260509155633 88 121 4.0 12.0 0.00 0.00 0.00 73 1014.9
20260509155133 88 145 5.0 12.0 0.00 0.00 0.00 71 1015.0
20260509154630 88 154 5.0 13.0 0.00 0.00 0.00 70 1015.0
20260509154128 88 153 7.0 13.0 0.00 0.00 0.00 71 1014.9
20260509153704 87 146 8.0 13.0 0.00 0.00 0.00 73 1015.1
20260509153140 87 138 6.0 13.0 0.00 0.00 0.00 74 1015.1
20260509152637 87 121 6.0 11.0 0.00 0.00 0.00 73 1015.0
20260509152133 87 148 4.0 11.0 0.00 0.00 0.00 73 1015.1
20260509151650 87 133 7.0 11.0 0.00 0.00 0.00 73 1015.0
20260509151248 87 119 5.0 10.0 0.00 0.00 0.00 73 1015.0
20260509151144 87 119 5.0 10.0 0.00 0.00 0.00 73 1015.0
20260509150720 87 115 5.0 9.0 0.00 0.00 0.00 73 1014.9
20260509150134 87 154 3.0 9.0 0.00 0.00 0.00 74 1014.8
20260509145701 87 126 5.0 9.0 0.00 0.00 0.00 75 1014.8
20260509145138 87 144 3.0 8.0 0.00 0.00 0.00 73 1014.8
20260509144736 87 140 4.0 8.0 0.00 0.00 0.00 74 1014.8
20260509144632 87 140 4.0 8.0 0.00 0.00 0.00 74 1014.8
20260509144151 87 142 4.0 10.0 0.00 0.00 0.00 74 1014.7
20260509143708 86 142 4.0 11.0 0.00 0.00 0.00 74 1014.7
20260509143145 86 157 5.0 11.0 0.00 0.00 0.00 74 1014.6
20260509142643 87 152 3.0 7.0 0.00 0.00 0.00 74 1014.6
20260509142140 86 193 2.0 10.0 0.00 0.00 0.00 74 1014.6
20260509141638 86 202 5.0 10.0 0.00 0.00 0.00 73 1014.6
20260509141136 86 128 6.0 11.0 0.00 0.00 0.00 73 1014.5
20260509140652 86 202 5.0 10.0 0.00 0.00 0.00 72 1014.5
20260509140248 86 150 5.0 10.0 0.00 0.00 0.00 73 1014.4
20260509135634 86 121 5.0 12.0 0.00 0.00 0.00 71 1014.4
20260509135131 86 128 3.0 10.0 0.00 0.00 0.00 73 1014.4
20260509134649 86 155 2.0 11.0 0.00 0.00 0.00 74 1014.5
20260509134207 85 184 2.0 11.0 0.00 0.00 0.00 75 1014.5
20260509133644 85 111 4.0 10.0 0.00 0.00 0.00 76 1014.4
20260509133142 84 196 2.0 7.0 0.00 0.00 0.00 78 1014.3
20260509132715 84 196 2.0 7.0 0.00 0.00 0.00 80 1014.3
20260509132150 84 204 3.0 6.0 0.00 0.00 0.00 80 1014.4
20260509131725 83 192 2.0 7.0 0.00 0.00 0.00 83 1014.5
20260509131236 83 138 2.0 7.0 0.00 0.00 0.00 84 1014.5
20260509131132 83 138 2.0 7.0 0.00 0.00 0.00 84 1014.5
20260509130728 83 136 3.0 7.0 0.00 0.00 0.00 85 1014.3
20260509130225 82 134 1.0 4.0 0.00 0.00 0.00 86 1014.3
20260509125650 82 134 2.0 8.0 0.00 0.00 0.00 87 1014.1
20260509125206 81 134 2.0 8.0 0.00 0.00 0.00 88 1014.2
20260509124703 81 134 2.0 5.0 0.00 0.00 0.00 89 1014.2
20260509124220 81 134 3.0 4.0 0.00 0.00 0.00 90 1014.4
20260509123715 80 134 0.0 3.0 0.00 0.00 0.00 91 1014.3
20260509123130 80 134 0.0 3.0 0.00 0.00 0.00 92 1014.3
20260509122648 80 134 0.0 0.0 0.00 0.00 0.00 93 1014.4
20260509122204 79 134 0.0 0.0 0.00 0.00 0.00 93 1014.5
20260509121700 79 134 0.0 0.0 0.00 0.00 0.00 93 1014.4
20260509121137 79 134 0.0 0.0 0.00 0.00 0.00 94 1014.4
20260509120715 78 134 0.0 0.0 0.00 0.00 0.00 95 1014.4
20260509120633 78 134 0.0 0.0 0.00 0.00 0.00 95 1014.4
20260509120229 78 134 0.0 1.0 0.00 0.00 0.00 95 1014.4
20260509115656 78 134 0.0 1.0 0.00 0.00 0.00 95 1014.4
20260509115213 78 134 0.0 0.0 0.00 0.00 0.00 95 1014.5
20260509114744 77 134 0.0 0.0 0.00 0.00 0.00 95 1014.5
20260509114639 77 134 0.0 0.0 0.00 0.00 0.00 95 1014.5
20260509114236 78 134 0.0 0.0 0.00 0.00 0.00 95 1014.4
20260509114132 78 134 0.0 0.0 0.00 0.00 0.00 95 1014.4
20260509113707 77 134 0.0 0.0 0.00 0.00 0.00 96 1014.2
20260509113244 77 134 0.0 0.0 0.00 0.00 0.00 96 1014.3
20260509113201 77 134 0.0 0.0 0.00 0.00 0.00 96 1014.3
20260509112638 77 134 0.0 0.0 0.00 0.00 0.00 95 1014.2
20260509112136 77 134 0.0 0.0 0.00 0.00 0.00 96 1014.2
20260509111654 77 134 0.0 0.0 0.00 0.00 0.00 96 1014.1
20260509111131 77 134 0.0 0.0 0.00 0.00 0.00 96 1014.2
20260509110628 77 134 0.0 0.0 0.00 0.00 0.00 95 1014.2
20260509110127 77 134 0.0 0.0 0.00 0.00 0.00 95 1014.2
20260509105657 77 134 0.0 0.0 0.00 0.00 0.00 95 1014.1
20260509105133 77 134 0.0 0.0 0.00 0.00 0.00 95 1014.1
20260509104711 77 134 0.0 0.0 0.00 0.00 0.00 95 1014.2
20260509104207 77 134 0.0 0.0 0.00 0.00 0.00 95 1014.2
20260509103744 77 134 0.0 0.0 0.00 0.00 0.00 95 1014.2
20260509103702 77 134 0.0 0.0 0.00 0.00 0.00 95 1014.2
20260509103219 77 134 0.0 0.0 0.00 0.00 0.00 95 1014.1
20260509102715 77 134 0.0 0.0 0.00 0.00 0.00 95 1014.0
20260509102633 77 134 0.0 0.0 0.00 0.00 0.00 95 1014.0
20260509102130 77 134 0.0 0.0 0.00 0.00 0.00 95 1014.1
20260509101743 77 134 0.0 0.0 0.00 0.00 0.00 95 1014.1
20260509101158 77 134 0.0 0.0 0.00 0.00 0.00 95 1014.1
20260509100638 77 134 0.0 0.0 0.00 0.00 0.00 95 1014.0
20260509100155 77 134 0.0 0.0 0.00 0.00 0.00 95 1014.1
20260509095641 77 134 0.0 3.0 0.00 0.00 0.00 95 1013.9
20260509095140 77 134 0.0 4.0 0.00 0.00 0.00 94 1013.9
20260509094657 77 134 1.0 4.0 0.00 0.00 0.00 94 1013.9
20260509094134 77 134 0.0 2.0 0.00 0.00 0.00 94 1013.9
20260509093713 77 134 0.0 0.0 0.00 0.00 0.00 94 1013.8
20260509093631 77 134 0.0 0.0 0.00 0.00 0.00 94 1013.8
20260509093245 78 134 0.0 0.0 0.00 0.00 0.00 94 1013.8
20260509093202 78 134 0.0 0.0 0.00 0.00 0.00 94 1013.8
20260509092639 78 134 0.0 0.0 0.00 0.00 0.00 94 1013.8
20260509092158 78 134 0.0 0.0 0.00 0.00 0.00 94 1013.7
20260509091640 78 134 0.0 0.0 0.00 0.00 0.00 94 1013.7
20260509091138 78 134 0.0 3.0 0.00 0.00 0.00 94 1013.7
20260509090717 78 134 1.0 4.0 0.00 0.00 0.00 93 1013.7
20260509090153 78 134 0.0 0.0 0.00 0.00 0.00 93 1013.6
20260509085657 78 134 0.0 0.0 0.00 0.00 0.00 93 1013.7
20260509085138 78 134 0.0 0.0 0.00 0.00 0.00 93 1013.6
20260509084751 78 134 0.0 3.0 0.00 0.00 0.00 93 1013.6
20260509084143 79 134 0.0 3.0 0.00 0.00 0.00 92 1013.5
20260509083720 79 134 1.0 3.0 0.00 0.00 0.00 92 1013.6
20260509083216 79 134 0.0 4.0 0.00 0.00 0.00 92 1013.6
20260509082630 79 134 0.0 5.0 0.00 0.00 0.00 92 1013.6
20260509082207 79 134 1.0 5.0 0.00 0.00 0.00 91 1013.6
20260509081643 79 134 0.0 4.0 0.00 0.00 0.00 91 1013.5
20260509081219 79 134 1.0 4.0 0.00 0.00 0.00 91 1013.6
20260509080633 79 134 2.0 4.0 0.00 0.00 0.00 91 1013.6
20260509080150 79 134 0.0 4.0 0.00 0.00 0.00 90 1013.7
20260509075637 79 134 1.0 4.0 0.00 0.00 0.00 90 1013.6
20260509075135 79 134 1.0 3.0 0.00 0.00 0.00 90 1013.6
20260509074711 79 134 1.0 2.0 0.00 0.00 0.00 90 1013.6
20260509074226 80 134 1.0 2.0 0.00 0.00 0.00 90 1013.6
20260509073641 80 134 0.0 2.0 0.00 0.00 0.00 90 1013.6
20260509073139 80 134 0.0 2.0 0.00 0.00 0.00 90 1013.6
20260509072637 80 134 0.0 3.0 0.00 0.00 0.00 90 1013.6
20260509072155 80 134 1.0 3.0 0.00 0.00 0.00 90 1013.7
20260509071652 80 134 1.0 4.0 0.00 0.00 0.00 90 1013.7
20260509071130 80 134 1.0 4.0 0.00 0.00 0.00 90 1013.7
20260509070728 80 134 1.0 4.0 0.00 0.00 0.00 90 1013.7
20260509070144 80 134 2.0 5.0 0.00 0.00 0.00 89 1013.8
20260509065654 80 134 1.0 5.0 0.00 0.00 0.00 89 1013.9
20260509065130 80 134 1.0 4.0 0.00 0.00 0.00 89 1013.9
20260509064729 80 134 0.0 4.0 0.00 0.00 0.00 89 1014.0
20260509064646 80 134 0.0 4.0 0.00 0.00 0.00 89 1014.0
20260509064144 80 134 2.0 7.0 0.00 0.00 0.00 89 1014.0
20260509063642 80 134 1.0 4.0 0.00 0.00 0.00 89 1013.9
20260509063221 80 134 2.0 5.0 0.00 0.00 0.00 89 1014.0
20260509063138 80 134 2.0 5.0 0.00 0.00 0.00 89 1014.0
20260509062656 80 134 2.0 7.0 0.00 0.00 0.00 89 1014.0
20260509062212 80 134 3.0 7.0 0.00 0.00 0.00 89 1014.1
20260509061647 80 133 2.0 7.0 0.00 0.00 0.00 89 1014.1
20260509061145 80 133 3.0 8.0 0.00 0.00 0.00 90 1014.1
20260509060643 80 133 4.0 8.0 0.00 0.00 0.00 90 1014.1
20260509060221 80 132 3.0 9.0 0.00 0.00 0.00 90 1014.1
20260509055629 80 132 4.0 9.0 0.00 0.00 0.00 90 1014.1
20260509055145 80 127 2.0 10.0 0.00 0.00 0.00 90 1014.2
20260509054643 80 127 3.0 10.0 0.00 0.00 0.00 90 1014.2
20260509054140 80 120 4.0 9.0 0.00 0.00 0.00 90 1014.3
20260509053638 80 119 1.0 8.0 0.00 0.00 0.00 90 1014.3
20260509053215 80 119 2.0 8.0 0.00 0.00 0.00 90 1014.4
20260509053132 80 119 2.0 8.0 0.00 0.00 0.00 90 1014.4
20260509052651 80 117 2.0 8.0 0.00 0.00 0.00 90 1014.5
20260509052248 80 117 4.0 8.0 0.00 0.00 0.00 90 1014.5
20260509051743 80 116 3.0 7.0 0.00 0.00 0.00 90 1014.5
20260509051158 80 116 2.0 8.0 0.00 0.00 0.00 90 1014.5
20260509050654 80 115 4.0 8.0 0.00 0.00 0.00 90 1014.5
20260509050128 80 113 3.0 7.0 0.00 0.00 0.00 90 1014.6
20260509045716 80 113 3.0 9.0 0.00 0.00 0.00 90 1014.6
20260509045151 80 113 3.0 9.0 0.00 0.00 0.00 90 1014.7
20260509044647 80 107 4.0 7.0 0.00 0.00 0.00 90 1014.7
20260509044145 80 107 3.0 7.0 0.00 0.00 0.00 90 1014.7
20260509043643 80 107 4.0 7.0 0.00 0.00 0.00 90 1014.8
20260509043141 80 107 3.0 7.0 0.00 0.00 0.00 90 1014.9
20260509042639 80 107 1.0 7.0 0.00 0.00 0.00 90 1014.9
20260509042217 80 107 2.0 7.0 0.00 0.00 0.00 90 1014.9
20260509041633 80 107 4.0 7.0 0.00 0.00 0.00 89 1014.9
20260509041151 80 106 3.0 7.0 0.00 0.00 0.00 90 1014.9
20260509040707 80 106 3.0 8.0 0.00 0.00 0.00 89 1014.9
20260509040203 80 105 2.0 8.0 0.00 0.00 0.00 90 1014.9
20260509035708 80 105 3.0 7.0 0.00 0.00 0.00 90 1015.0
20260509035142 80 105 3.0 7.0 0.00 0.00 0.00 89 1015.0
20260509034637 80 105 2.0 7.0 0.00 0.00 0.00 89 1015.0
20260509034154 80 105 2.0 7.0 0.00 0.00 0.00 89 1015.0
20260509033631 80 105 4.0 9.0 0.00 0.00 0.00 89 1015.0
20260509033227 80 104 4.0 9.0 0.00 0.00 0.00 89 1015.0
20260509032642 80 101 3.0 6.0 0.00 0.00 0.00 89 1015.1
20260509032158 80 101 3.0 6.0 0.00 0.00 0.00 89 1015.0
20260509031736 80 101 2.0 8.0 0.00 0.00 0.00 89 1015.1
20260509031130 80 101 3.0 7.0 0.00 0.00 0.00 89 1015.2
20260509030709 80 101 2.0 8.0 0.00 0.00 0.00 88 1015.1
20260509030227 80 101 3.0 8.0 0.00 0.00 0.00 88 1015.1
20260509025654 80 101 2.0 6.0 0.00 0.00 0.00 88 1015.2
20260509025130 80 101 1.0 6.0 0.00 0.00 0.00 88 1015.1
20260509024647 80 101 3.0 6.0 0.00 0.00 0.00 88 1015.3
20260509024143 80 101 2.0 6.0 0.00 0.00 0.00 88 1015.2
20260509023659 80 101 2.0 7.0 0.00 0.00 0.00 87 1015.1
20260509023215 80 101 3.0 8.0 0.00 0.00 0.00 87 1015.0
20260509022631 80 100 4.0 10.0 0.00 0.00 0.00 87 1014.9
20260509022128 80 99 5.0 10.0 0.00 0.00 0.00 87 1014.8
20260509021646 80 98 5.0 9.0 0.00 0.00 0.00 87 1014.8
20260509021204 81 98 3.0 8.0 0.00 0.00 0.00 87 1014.8
20260509020641 81 98 2.0 9.0 0.00 0.00 0.00 87 1014.8
20260509020137 81 98 5.0 9.0 0.00 0.00 0.00 86 1014.7
20260509015646 81 97 3.0 8.0 0.00 0.00 0.00 86 1014.7
20260509015204 81 98 3.0 8.0 0.00 0.00 0.00 86 1014.8
20260509014642 81 98 4.0 8.0 0.00 0.00 0.00 86 1014.7
20260509014159 81 97 3.0 7.0 0.00 0.00 0.00 86 1014.5
20260509013633 81 97 3.0 7.0 0.00 0.00 0.00 86 1014.6
20260509013129 81 97 3.0 9.0 0.00 0.00 0.00 86 1014.5
20260509012647 81 98 6.0 9.0 0.00 0.00 0.00 86 1014.4
20260509012145 81 107 3.0 9.0 0.00 0.00 0.00 86 1014.5
20260509011643 81 95 4.0 8.0 0.00 0.00 0.00 86 1014.4
20260509011220 81 91 3.0 8.0 0.00 0.00 0.00 85 1014.4
20260509010637 81 96 4.0 9.0 0.00 0.00 0.00 85 1014.3
20260509010135 81 96 5.0 9.0 0.00 0.00 0.00 85 1014.1
20260509005644 81 93 5.0 9.0 0.00 0.00 0.00 85 1014.0
20260509005142 81 88 5.0 9.0 0.00 0.00 0.00 85 1014.0
20260509004641 81 84 5.0 9.0 0.00 0.00 0.00 85 1013.8